DW6610 Weather Reports


time (UTC)temp
C
wind
direction
speed
KPH
gust
KPH
rain 1hr
cm
rain 24hr
cm
rain mn
cm
humidity
%
barometer
mb
20260506205050 12 124 0.0 6.4 0.10 4.34 4.34 94 1015.4
20260506204555 12 133 1.6 6.4 0.10 4.34 4.34 94 1015.2
20260506204052 12 169 1.6 8.0 0.10 4.34 4.34 94 1015.2
20260506203551 12 118 0.0 8.0 0.10 4.34 4.34 95 1015.3
20260506203101 12 193 1.6 8.0 0.10 4.34 4.34 94 1015.0
20260506202552 12 162 0.0 4.8 0.08 4.32 4.32 95 1015.3
20260506202052 12 199 0.0 4.8 0.05 4.29 4.29 94 1015.4
20260506201558 12 209 1.6 6.4 0.05 4.29 4.29 93 1015.5
20260506201053 12 0 1.6 6.4 0.03 4.27 4.27 93 1016.4
20260506200551 12 116 1.6 3.2 0.03 4.27 4.27 93 1015.8
20260506200136 12 156 1.6 3.2 0.00 4.24 4.24 92 1016.2
20260506195552 12 120 0.0 4.8 0.00 4.24 4.24 92 1016.2
20260506195052 12 108 1.6 4.8 0.00 4.24 4.24 92 1016.2
20260506194604 12 148 0.0 9.7 0.00 4.24 4.24 92 1016.1
20260506194051 12 91 0.0 9.7 0.00 4.24 4.24 92 1015.9
20260506193551 12 131 1.6 8.0 0.00 4.24 4.24 92 1016.0
20260506193058 12 108 1.6 6.4 0.00 4.24 4.24 92 1016.1
20260506192551 13 127 1.6 4.8 0.00 4.24 4.24 92 1016.2
20260506192051 13 118 0.0 4.8 0.00 4.24 4.24 93 1016.2
20260506191551 13 179 1.6 4.8 0.00 4.24 4.24 93 1016.0
20260506191052 12 260 0.0 1.6 0.00 4.24 4.24 92 1016.1
20260506190551 12 141 0.0 4.8 0.00 4.24 4.24 93 1016.3
20260506190052 12 111 0.0 6.4 0.00 4.24 4.24 93 1016.4
20260506185553 12 93 0.0 6.4 0.00 4.29 4.24 93 1016.2
20260506185052 12 177 1.6 4.8 0.00 4.29 4.24 93 1015.9
20260506184554 12 141 1.6 4.8 0.00 4.29 4.24 94 1015.7
20260506184053 12 0 0.0 4.8 0.00 4.29 4.24 93 1015.5
20260506183552 12 188 0.0 8.0 0.00 4.29 4.24 93 1015.7
20260506183055 12 129 0.0 8.0 0.00 4.29 4.24 94 1015.8
20260506182551 12 137 1.6 4.8 0.00 4.29 4.24 94 1015.6
20260506182053 12 158 1.6 6.4 0.00 4.29 4.24 94 1015.6
20260506181553 12 162 0.0 6.4 0.00 4.29 4.24 95 1015.6
20260506181053 12 129 1.6 8.0 0.00 4.29 4.24 95 1015.7
20260506180552 12 179 1.6 8.0 0.00 4.29 4.24 95 1015.7
20260506180105 12 108 1.6 6.4 0.00 4.29 4.24 97 1015.5
20260506175553 12 108 1.6 6.4 0.00 4.32 4.24 97 1015.6
20260506175051 12 120 1.6 6.4 0.00 4.32 4.24 97 1015.5
20260506174555 12 118 1.6 6.4 0.00 4.32 4.24 97 1015.2
20260506174049 11 181 1.6 4.8 0.00 4.32 4.24 97 1015.5
20260506173552 11 124 0.0 4.8 0.00 4.32 4.24 97 1015.7
20260506173107 11 139 0.0 6.4 0.10 4.32 4.24 97 1015.7
20260506172553 11 169 1.6 8.0 0.13 4.32 4.24 97 1015.5
20260506172051 11 144 1.6 8.0 0.13 4.32 4.24 97 1015.8
20260506171557 11 100 0.0 8.0 0.18 4.32 4.24 98 1016.0
20260506171049 11 155 3.2 8.0 0.15 4.29 4.22 98 1015.9
20260506170549 11 146 1.6 6.4 0.15 4.29 4.22 97 1015.8
20260506170058 11 149 1.6 4.8 0.15 4.29 4.22 97 1015.9
20260506165549 11 147 1.6 4.8 0.15 4.67 4.22 98 1016.0
20260506165049 11 141 0.0 6.4 0.15 4.65 4.19 98 1016.0
20260506164553 11 110 0.0 6.4 0.13 4.62 4.17 98 1015.8
20260506164051 11 122 1.6 6.4 0.13 4.60 4.14 97 1016.3
20260506163549 11 116 1.6 6.4 0.13 4.60 4.14 98 1015.7
20260506163053 10 115 0.0 4.8 0.15 4.60 4.14 98 1015.5
20260506162553 10 149 1.6 6.4 0.13 4.57 4.11 98 1015.6
20260506162051 10 109 1.6 6.4 0.15 4.57 4.11 98 1015.5
20260506161557 10 150 1.6 6.4 0.13 4.52 4.06 98 1015.3
20260506161049 10 109 1.6 6.4 0.13 4.52 4.06 98 1015.4
20260506160549 10 165 1.6 9.7 0.13 4.52 4.06 98 1015.2
20260506160106 10 163 3.2 9.7 0.13 4.52 4.06 97 1015.1
20260506155548 11 117 1.6 8.0 0.13 5.31 4.06 97 1015.2
20260506155050 11 193 1.6 8.0 0.13 5.28 4.04 97 1015.0
20260506154600 11 109 3.2 8.0 0.15 5.28 4.04 98 1015.2
20260506154049 11 127 0.0 8.0 0.15 5.28 4.01 99 1015.5
20260506153548 11 153 3.2 8.0 0.18 5.28 4.01 98 1014.6
20260506153057 11 200 1.6 8.0 0.20 5.26 3.99 98 1015.3
20260506152548 11 119 1.6 6.4 0.20 5.26 3.99 98 1015.1
20260506152048 10 129 1.6 4.8 0.23 5.23 3.96 98 1014.6
20260506151559 10 119 1.6 4.8 0.25 5.21 3.94 98 1015.3
20260506151049 10 162 1.6 3.2 0.30 5.21 3.94 98 1015.2
20260506150552 11 145 0.0 3.2 0.36 5.21 3.94 98 1015.3
20260506150105 11 122 0.0 4.8 0.38 5.21 3.94 98 1015.4
20260506145553 10 129 1.6 6.4 0.38 5.79 3.94 98 1015.1
20260506145048 11 120 0.0 6.4 0.38 5.77 3.91 98 1015.4
20260506144602 10 0 1.6 6.4 0.38 5.74 3.89 98 1014.9
20260506144051 10 105 0.0 4.8 0.36 5.71 3.86 98 1015.1
20260506143551 10 167 1.6 6.4 0.33 5.69 3.84 98 1014.7
20260506143058 11 174 0.0 6.4 0.28 5.64 3.78 98 1015.0
20260506142548 11 169 1.6 6.4 0.28 5.64 3.78 98 1015.1
20260506142053 11 0 0.0 3.2 0.23 5.59 3.73 98 1014.7
20260506141559 11 148 0.0 3.2 0.18 5.54 3.68 97 1014.2
20260506141051 11 146 0.0 8.0 0.13 5.49 3.63 98 1015.0
20260506140553 11 176 1.6 8.0 0.08 5.44 3.58 97 1014.8
20260506140056 11 264 3.2 8.0 0.05 5.41 3.56 97 1014.2
20260506135551 11 103 0.0 4.8 0.05 5.69 3.56 97 1014.8
20260506135051 11 0 1.6 4.8 0.03 5.66 3.53 97 1014.6
20260506134614 11 179 0.0 3.2 0.00 5.64 3.51 98 1013.9
20260506134053 11 131 0.0 3.2 0.00 5.64 3.51 97 1014.0
20260506133551 11 141 1.6 3.2 0.00 5.64 3.51 97 1014.4
20260506133054 11 155 0.0 3.2 0.00 5.64 3.51 97 1014.0
20260506132551 11 0 0.0 4.8 0.00 5.64 3.51 98 1014.0
20260506132051 11 105 0.0 4.8 0.00 5.64 3.51 98 1014.2
20260506131607 11 0 1.6 8.0 0.00 5.64 3.51 98 1013.8
20260506131049 11 132 1.6 8.0 0.00 5.64 3.51 98 1013.5
20260506130552 11 103 1.6 8.0 0.00 5.64 3.51 98 1013.7
20260506130055 11 139 0.0 6.4 0.00 5.64 3.51 98 1013.8
20260506125551 11 153 1.6 6.4 0.00 5.64 3.51 98 1013.8
20260506125051 11 139 3.2 6.4 0.00 5.64 3.51 98 1013.2
20260506124553 11 162 0.0 4.8 0.00 5.64 3.51 98 1012.6
20260506124051 11 179 0.0 6.4 0.00 5.64 3.51 98 1013.0
20260506123552 10 0 1.6 6.4 0.00 5.64 3.51 98 1012.6
20260506123053 10 165 1.6 6.4 0.00 5.64 3.51 98 1012.6
20260506122551 10 155 1.6 4.8 0.00 5.64 3.51 98 1012.8
20260506122051 10 175 0.0 4.8 0.00 5.64 3.51 98 1012.7
20260506121549 10 119 0.0 4.8 0.00 5.64 3.51 98 1012.6
20260506121051 10 153 0.0 4.8 0.00 5.64 3.51 98 1012.6
20260506120549 10 153 1.6 4.8 0.00 5.64 3.51 98 1012.3
20260506120052 10 114 1.6 4.8 0.03 5.64 3.51 98 1012.2
20260506115551 10 139 1.6 8.0 0.05 5.64 3.51 98 1012.0
20260506115048 10 115 1.6 8.0 0.08 5.64 3.51 98 1012.1
20260506114554 10 149 1.6 8.0 0.13 5.64 3.51 98 1012.2
20260506114052 10 0 0.0 8.0 0.20 5.64 3.51 98 1012.3
20260506113551 10 96 1.6 8.0 0.20 5.64 3.51 98 1012.2
20260506113051 10 121 1.6 4.8 0.23 5.64 3.51 98 1011.9
20260506112551 10 162 1.6 6.4 0.30 5.64 3.51 98 1011.8
20260506112051 10 140 1.6 6.4 0.36 5.64 3.51 98 1011.5
20260506111608 10 173 1.6 8.0 0.43 5.64 3.51 98 1011.6
20260506111051 10 139 1.6 8.0 0.46 5.64 3.51 98 1011.8
20260506110553 10 77 1.6 8.0 0.53 5.64 3.51 98 1011.7
20260506110055 10 91 3.2 8.0 0.56 5.61 3.48 98 1011.7
20260506105548 10 139 1.6 8.0 0.58 5.59 3.45 98 1011.8
20260506105051 10 103 1.6 8.0 0.61 5.56 3.43 98 1010.7
20260506104554 10 172 1.6 8.0 0.58 5.51 3.38 98 1012.2
20260506104055 10 125 1.6 6.4 0.56 5.44 3.30 98 1012.7
20260506103551 11 181 1.6 6.4 0.58 5.44 3.30 98 1012.1
20260506103051 11 82 0.0 9.7 0.56 5.36 3.25 98 1011.6
20260506102552 11 110 1.6 9.7 0.53 5.31 3.20 98 1012.0
20260506102056 11 99 3.2 9.7 0.48 5.28 3.15 98 1012.0
20260506101554 11 0 1.6 8.0 0.43 5.21 3.07 98 1011.7
20260506101051 11 193 1.6 8.0 0.38 5.16 3.02 98 1012.5
20260506100551 11 134 0.0 9.7 0.33 5.11 2.95 98 1012.0
20260506100053 11 92 1.6 9.7 0.28 5.05 2.92 98 1011.5
20260506095551 11 79 3.2 9.7 0.25 5.00 2.87 98 1011.2
20260506095050 11 167 1.6 9.7 0.20 4.95 2.82 98 1011.0
20260506094552 11 146 0.0 9.7 0.18 4.93 2.79 98 1011.6
20260506094049 11 134 3.2 9.7 0.13 4.88 2.74 98 1011.3
20260506093554 11 196 1.6 6.4 0.10 4.85 2.72 98 1010.9
20260506093057 11 139 1.6 8.0 0.13 4.83 2.67 98 1010.8
20260506092550 11 129 0.0 11.3 0.48 4.80 2.64 98 1011.2
20260506092055 11 54 4.8 11.3 0.56 4.80 2.64 98 1009.7
20260506091552 11 98 3.2 11.3 0.76 4.78 2.64 98 1010.2
20260506091051 11 185 1.6 6.4 1.04 4.78 2.64 98 1010.4
20260506090552 11 114 0.0 6.4 1.27 4.78 2.64 98 1010.7
20260506090054 11 106 1.6 6.4 1.32 4.78 2.64 98 1010.2
20260506085551 11 190 1.6 6.4 1.45 4.75 2.62 98 1010.0
20260506085051 11 178 1.6 9.7 1.55 4.75 2.62 98 1010.3
20260506084553 11 134 0.0 11.3 1.57 4.75 2.62 98 1009.6
20260506084053 11 161 1.6 11.3 1.63 4.75 2.62 98 1009.4
20260506083551 11 197 3.2 9.7 1.63 4.75 2.62 98 1009.2
20260506083109 11 187 1.6 6.4 1.57 4.67 2.54 97 1009.1
20260506082548 11 128 3.2 11.3 1.24 4.32 2.18 97 1009.8
20260506082054 11 95 1.6 12.9 1.17 4.24 2.11 97 1009.7
20260506081552 11 142 4.8 12.9 0.91 3.99 1.85 97 1011.0
20260506081052 11 167 4.8 11.3 0.61 3.68 1.55 97 1010.4
20260506080552 12 172 3.2 12.9 0.43 3.51 1.37 97 1010.0
20260506073054 12 201 3.2 14.5 0.69 3.10 0.97 96 1009.8
20260506072551 12 101 3.2 6.4 0.74 3.07 0.94 96 1009.4
20260506072049 12 129 1.6 6.4 0.74 3.07 0.94 96 1009.2
20260506071555 12 174 0.0 11.3 0.79 3.07 0.94 95 1009.1
20260506071052 12 129 1.6 11.3 0.94 3.07 0.94 95 1009.3
20260506070552 13 180 4.8 14.5 0.94 3.07 0.94 94 1009.4
20260506070126 13 134 3.2 17.7 0.86 2.97 0.86 93 1009.3
20260506062051 19 79 3.2 43.5 0.20 2.34 0.20 91 1008.4
20260506061553 20 128 14.5 43.5 0.15 2.29 0.15 88 1008.0
20260506061051 21 75 8.0 19.3 0.00 2.13 0.00 90 1006.9
20260506060552 21 51 6.4 17.7 0.00 2.13 0.00 90 1006.9
20260506051052 20 108 6.4 14.5 0.00 2.13 0.00 90 1007.2
20260506050552 20 134 4.8 14.5 0.00 2.13 0.00 90 1007.5
20260506050108 20 129 4.8 17.7 0.00 2.13 0.00 91 1007.3
20260506045052 20 315 3.2 12.9 0.00 2.13 2.13 91 1007.3
20260506044557 20 81 4.8 12.9 0.00 2.13 2.13 91 1007.3
20260506044052 20 16 1.6 11.3 0.00 2.13 2.13 91 1007.6
20260506043551 20 316 3.2 11.3 0.00 2.13 2.13 91 1008.0
20260506043056 20 77 3.2 11.3 0.00 2.13 2.13 91 1007.8
20260506042551 20 327 3.2 9.7 0.00 2.13 2.13 91 1007.8
20260506042050 20 276 4.8 9.7 0.00 2.13 2.13 90 1007.8
20260506041557 20 74 3.2 9.7 0.00 2.13 2.13 91 1007.9
20260506041052 20 56 3.2 6.4 0.00 2.13 2.13 91 1008.0
20260506040554 20 49 1.6 9.7 0.00 2.13 2.13 91 1008.0
20260506040052 20 64 3.2 9.7 0.00 2.13 2.13 91 1008.2
20260506035553 20 76 3.2 8.0 0.00 2.13 2.13 91 1008.5
20260506035051 20 32 1.6 9.7 0.00 2.13 2.13 91 1008.6
20260506034558 20 352 3.2 9.7 0.00 2.13 2.13 91 1008.3
20260506034048 20 49 1.6 8.0 0.00 2.13 2.13 91 1008.5
20260506033548 20 45 0.0 6.4 0.00 2.13 2.13 91 1008.6
20260506033053 20 93 1.6 9.7 0.00 2.13 2.13 91 1008.4
20260506032548 20 65 3.2 9.7 0.00 2.13 2.13 91 1008.3
20260506032050 20 87 3.2 9.7 0.00 2.13 2.13 91 1008.3
20260506031552 20 20 3.2 9.7 0.00 2.13 2.13 91 1008.3
20260506031052 20 69 3.2 11.3 0.00 2.13 2.13 91 1008.3
20260506030551 20 69 3.2 11.3 0.00 2.13 2.13 91 1008.3
20260506030054 20 109 3.2 12.9 0.00 2.13 2.13 91 1008.2
20260506025551 20 33 3.2 12.9 0.00 2.13 2.13 91 1008.3
20260506025051 20 287 4.8 12.9 0.00 2.13 2.13 92 1008.3
20260506024601 20 23 3.2 11.3 0.00 2.13 2.13 92 1008.6
20260506024051 20 343 3.2 11.3 0.00 2.13 2.13 92 1008.6
20260506023551 20 339 3.2 14.5 0.00 2.13 2.13 92 1008.5
20260506023056 20 330 4.8 14.5 0.00 2.13 2.13 92 1008.5
20260506022548 20 28 4.8 11.3 0.00 2.13 2.13 92 1008.3
20260506022048 20 56 3.2 8.0 0.00 2.13 2.13 93 1008.3
20260506021554 20 77 3.2 8.0 0.00 2.13 2.13 93 1008.3
20260506021048 20 68 1.6 6.4 0.00 2.13 2.13 93 1008.2
20260506020551 20 66 1.6 8.0 0.00 2.13 2.13 93 1008.3
20260506020110 20 67 1.6 8.0 0.00 2.13 2.13 93 1008.3
20260506015552 20 60 1.6 8.0 0.00 2.13 2.13 93 1008.0
20260506015052 20 82 1.6 8.0 0.00 2.13 2.13 93 1008.1
20260506014609 20 321 1.6 12.9 0.00 2.13 2.13 93 1008.1
20260506014051 20 64 3.2 12.9 0.00 2.13 2.13 94 1008.1
20260506013551 20 84 3.2 12.9 0.00 2.13 2.13 94 1008.1
20260506013052 20 48 3.2 11.3 0.00 2.13 2.13 94 1008.0
20260506012551 20 317 4.8 11.3 0.00 2.13 2.13 94 1007.8
20260506012051 20 84 3.2 11.3 0.00 2.13 2.13 94 1007.8
20260506011616 20 321 3.2 11.3 0.00 2.13 2.13 95 1007.9
20260506011051 20 20 3.2 8.0 0.00 2.13 2.13 95 1008.0
20260506010551 20 77 1.6 6.4 0.00 2.13 2.13 95 1007.9
20260506010052 20 58 1.6 11.3 0.00 2.13 2.13 95 1007.8
20260506005552 20 285 3.2 11.3 0.00 2.13 2.13 94 1007.7
20260506005051 20 9 3.2 12.9 0.00 2.13 2.13 94 1007.5
20260506004602 20 25 3.2 12.9 0.00 2.13 2.13 94 1007.7
20260506004051 20 71 3.2 12.9 0.00 2.13 2.13 94 1007.9
20260506003551 20 88 3.2 8.0 0.00 2.13 2.13 94 1007.7
20260506003053 20 32 3.2 6.4 0.00 2.13 2.13 94 1008.0
20260506002553 20 33 3.2 6.4 0.00 2.13 2.13 94 1008.0
20260506002048 20 70 1.6 8.0 0.00 2.13 2.13 94 1008.2
20260506001556 20 48 1.6 8.0 0.00 2.13 2.13 94 1007.8
20260506001051 20 347 3.2 11.3 0.00 2.13 2.13 94 1007.5
20260506000554 20 41 3.2 11.3 0.00 2.13 2.13 94 1007.6
20260506000118 20 300 4.8 11.3 0.00 2.13 2.13 94 1007.4
20260505235554 20 91 3.2 11.3 0.00 2.13 2.13 94 1007.4
20260505235052 20 95 3.2 11.3 0.00 2.13 2.13 94 1007.6
20260505234554 20 66 3.2 11.3 0.00 2.13 2.13 94 1007.9
20260505234052 20 51 1.6 8.0 0.00 2.13 2.13 94 1007.9
20260505233553 20 311 1.6 11.3 0.00 2.13 2.13 94 1007.9
20260505233057 20 26 3.2 11.3 0.00 2.13 2.13 94 1007.9
20260505232551 20 86 1.6 6.4 0.00 2.13 2.13 94 1007.8
20260505232053 20 72 3.2 8.0 0.00 2.13 2.13 94 1007.9
20260505231604 20 60 1.6 11.3 0.00 2.13 2.13 94 1008.0
20260505231052 20 80 1.6 11.3 0.00 2.13 2.13 94 1008.0
20260505230552 20 83 1.6 6.4 0.00 2.13 2.13 94 1008.0
20260505230106 20 44 3.2 6.4 0.00 2.13 2.13 94 1008.0
20260505225548 20 83 1.6 6.4 0.00 2.13 2.13 94 1008.0
20260505225052 20 78 1.6 8.0 0.00 2.13 2.13 94 1008.0
20260505224557 20 304 3.2 8.0 0.00 2.13 2.13 94 1008.0
20260505224051 19 47 1.6 8.0 0.00 2.13 2.13 94 1008.0
20260505223556 19 27 3.2 8.0 0.00 2.13 2.13 94 1007.9
20260505223055 19 39 3.2 9.7 0.00 2.13 2.13 94 1007.9
20260505222551 19 44 3.2 9.7 0.00 2.13 2.13 95 1007.6
20260505222053 19 32 1.6 11.3 0.00 2.13 2.13 95 1007.7
20260505221559 19 31 3.2 11.3 0.00 2.13 2.13 95 1008.0
20260505221052 18 43 1.6 8.0 0.00 2.13 2.13 96 1008.0
20260505220550 18 316 3.2 8.0 0.00 2.13 2.13 96 1008.1
20260505220059 18 19 3.2 11.3 0.00 2.13 2.13 96 1008.3
20260505215548 18 51 1.6 11.3 0.00 2.13 2.13 96 1008.3
20260505215048 18 86 3.2 8.0 0.00 2.13 2.13 96 1008.3
20260505214553 18 30 3.2 6.4 0.00 2.13 2.13 96 1008.5
20260505214051 18 344 1.6 8.0 0.00 2.13 2.13 96 1008.5
20260505213552 18 56 3.2 8.0 0.00 2.13 2.13 96 1008.6
20260505213057 18 47 1.6 8.0 0.00 2.13 2.13 96 1008.6
20260505212554 18 331 3.2 8.0 0.00 2.13 2.13 96 1008.6
20260505212052 18 81 0.0 4.8 0.00 2.13 2.13 96 1008.6
20260505211610 18 107 1.6 8.0 0.00 2.13 2.13 96 1008.7
20260505211052 18 66 3.2 11.3 0.00 2.13 2.13 96 1008.7
20260505210551 18 11 3.2 11.3 0.00 2.13 2.13 96 1008.7
20260505210058 18 110 4.8 11.3 0.00 2.13 2.13 96 1008.8
20260505205551 18 105 4.8 11.3 0.00 2.13 2.13 96 1008.8